Preview of NWS' New Version of Forecast
This preview is not operational and should not be used for support decisions.

Regional Weather Roundup (RWR)

Issued by National Weather Service (NWS)

                            
000
ASUS43 KDMX 230106
RWRIA 

WEATHER ROUNDUP FOR IOWA
NATIONAL WEATHER SERVICE DES MOINES IA
800 PM CDT FRI MAR 22 2019

NOTE: "FAIR" INDICATES FEW OR NO CLOUDS BELOW 12,000 FEET WITH NO
SIGNIFICANT WEATHER AND/OR OBSTRUCTIONS TO VISIBILITY.

* - THESE STATIONS ARE NOT NWS STATIONS...THUS NOT UNDER NWS
QUALITY CONTROL.  THEY ALSO DO NOT REPORT WEATHER SUCH 
AS PRECIPITATION OR FOG.  

IAZ001>003-012>014-020>022-031>034-043>046-230200-
   NORTHWEST IOWA
  
CITY           SKY/WX    TMP DP  RH WIND       PRES   REMARKS
CARROLL *      CLEAR     46  36  66 NE7       30.17S                  
CHEROKEE *     CLOUDY    40  34  78 E6        30.18S                  
DENISON *      CLEAR     46  32  57 E9        30.17F                  
LE MARS *      CLOUDY    48  36  61 E8        30.16F                  
SHELDON *      CLEAR     45  41  87 E7        30.16S                  
SIOUX CITY     PTCLDY    49  34  56 E7        30.15S                  
SPENCER        CLEAR     43  35  73 E7        30.19R                  
STORM LAKE *   CLEAR     41  36  81 NE8       30.15S                  
$$
 
IAZ055>058-069>071-079>083-090>094-230200-
   SOUTHWEST IOWA
  
CITY           SKY/WX    TMP DP  RH WIND       PRES   REMARKS
ATLANTIC *     PTCLDY    48  32  53 NE6       30.14F                  
AUDUBON *      CLEAR     41  34  75 CALM      30.18R                  
CLARINDA *     CLOUDY    52  30  43 E6        30.15S                  
COUNCIL BLFS * CLOUDY    52  25  35 E8        30.12F                  
CRESTON *      CLOUDY    45  28  53 E7        30.15S                  
HARLAN  *      CLEAR     48  30  49 E8        30.15S                  
RED OAK *      PTCLDY    50  32  50 NE6       30.13F                  
SHENANDOAH *   MOCLDY    54  30  40 E6        30.11F                  
$$
 
IAZ047>049-059>061-072>074-084-230200-
   CENTRAL IOWA
  
CITY           SKY/WX    TMP DP  RH WIND       PRES   REMARKS
AMES           CLEAR     45  33  63 N6        30.18S                  
ANKENY *       CLEAR     45  32  61 NE6       30.19S                  
BOONE *        CLEAR     43  39  87 NE5       30.18R                  
CHARITON *     CLEAR     48  28  46 NE6       30.16S                  
DES MOINES     PTCLDY    50  27  40 NE6       30.18S                  
GRINNELL*      CLEAR     42  31  65 N6        30.19S                  
KNOXVILLE *    CLEAR     48  27  43 NE5       30.17S                  
MARSHALLTOWN   CLEAR     44  35  70 N5        30.18R                  
NEWTON *       CLEAR     46  32  57 NE7       30.18S                  
PELLA *        CLEAR     47  31  52 NE3       30.19R                  
PERRY *        FAIR      49  31  49 NE5       30.18R                  
$$
 
IAZ004>006-015-016-023>025-035-036-230200-
   NORTH CENTRAL IOWA
  
CITY           SKY/WX    TMP DP  RH WIND       PRES   REMARKS
ALGONA *       CLEAR     43  39  87 N3        30.19R                  
CLARION *      CLEAR     41  37  87 NE7       30.19S                  
ESTHERVILLE    CLEAR     39  35  86 NE5       30.19S                  
FORT DODGE *   CLEAR     42  36  79 NE3       30.20R                  
MASON CITY     CLEAR     38  34  85 NE6       30.20S WCI  33          
FOREST CITY *  FAIR      41  34  75 CALM      30.19S                  
IOWA FALLS *   FAIR      44  35  70 CALM      30.20R                  
$$

IAZ007>011-017>019-026>030-037>042-050>054-066-230200-
   NORTHEAST IOWA
  
CITY           SKY/WX    TMP DP  RH WIND       PRES   REMARKS
CEDAR RAPIDS   FAIR      42  31  64 N7        30.17S                  
CHARLES CITY * FAIR      39  30  70 N7        30.19F WCI  34          
CLINTON *      FAIR      43  29  57 NE5       30.19R                  
DECORAH *      FAIR      41  23  48 N5        30.18S                  
DUBUQUE        FAIR      43  24  47 N3        30.18S                  
OELWEIN *      FAIR      41  32  70 N6        30.19S                  
WATERLOO       FAIR      37  30  75 N5        30.19R WCI  33          
$$
 
IAZ064-065-067-068-078-230200-
   EAST CENTRAL IOWA
  
CITY           SKY/WX    TMP DP  RH WIND       PRES   REMARKS
DAVENPORT      FAIR      45  30  55 N3        30.20R                  
IOWA CITY      FAIR      49  27  42 N6        30.19R                  
MT. PLEASANT * CLEAR     46  32  57 NE5       30.18R                  
MUSCATINE *    FAIR      45  30  57 NE5       30.19R                  
QUAD CITIES    FAIR      50  25  37 N3        30.17R                  
$$
 
IAZ062-063-075>077-085>089-095>099-230200-
   SOUTHEAST IOWA
  
CITY           SKY/WX    TMP DP  RH WIND       PRES   REMARKS
BURLINGTON     CLEAR     48  27  44 NE3       30.17S                  
FAIRFIELD *    CLEAR     41  28  60 N7        30.17S                  
FORT MADISON * CLEAR     48  28  46 NE3       30.18S                  
KEOKUK *       CLEAR     50  28  43 CALM      30.17R                  
OSKALOOSA *    FAIR      45  31  58 NE6       30.18S                  
CENTERVILLE *  FAIR      48  28  46 NE6       30.18R                  
OTTUMWA        CLEAR     47  31  53 NE6       30.17R                  
WASHINGTON *     N/A     46  32  57 N6        30.19R                  
$$

ABBREVIATIONS USED IN REMARKS
   TC - TEMPERATURES IN CELSIUS
  WCI - WIND CHILL INDEX
   HX - HEAT INDEX
  VSB - VISIBILITY  
$$